Home > Time Zones > World Clock > Weather > India > Pali > Past weeks

Flag for India Weather past 2 weeks in Pali, Rajasthan, India

Now
77 °F

Broken clouds.


Feels Like: 78 °F
Forecast: 78 / 84 °F
Wind: 12 mph from Southeast

Location: Jaipur / Sanganer

Current Time: Jul 28, 2015 at 6:53:42 PM

Latest Report: Jul 28, 2015 at 6:00 PM


Visibility: 2 mi

Pressure: 29.56 "Hg

Humidity: 94%

Dew point: 75 °F

Location of PaliLocation

Historic Weather in Pali — Graph

°F

Pali temperature yesterday

Maximum temperature yesterday: 81 °F (at 2:00 PM)
Minimum temperature yesterday: 73 °F (at 2:00 AM)
Average temperature yesterday: 76 °F

Past Weeks' High & Low Weather Summary

 TemperatureHumidityPressure
High99 °F (Jul 15, 3:00 PM)100% (Jul 17, 4:00 PM)29.71 "Hg (Jul 17, 4:00 PM)
Low73 °F (Jul 27, 2:00 AM)39% (Jul 16, 4:00 PM)28.12 "Hg (Jul 16, 3:00 AM)
Average84 °F78%29.56 "Hg
* Reported Jul 13 6:00 PM — Jul 28 5:30 PM, Pali, Weather by CustomWeather, © 2015

Note: Actual official high and low records may vary slightly from our data, if they occured in-between our weather recording intervals... More about our weather records

Advertising

Pali weather history for previous 24 hours

 ConditionsComfort  
Time TempWeatherWind HumidityBarometerVisibility
5:30 PM
Tue, Jul 28
77 °FBroken clouds.10 mph94%29.56 "Hg2 mi
4:30 PM81 °FBroken clouds.14 mph84%29.56 "Hg1 mi
4:00 PM81 °FBroken clouds.13 mph84%29.56 "Hg1 mi
3:30 PM81 °FDrizzle. Broken clouds.10 mph84%29.56 "Hg1 mi
2:31 PM79 °FDrizzle. Broken clouds.9 mph94%29.56 "Hg1 mi
2:00 PM81 °FBroken clouds.12 mph84%N/A1 mi
1:00 PM81 °FMore clouds than sun.13 mph79%29.59 "Hg1 mi
11:00 AM79 °FMore clouds than sun.12 mph84%29.62 "Hg1 mi
10:00 AM79 °FMore clouds than sun.13 mph84%29.62 "Hg1 mi
9:00 AM77 °FBroken clouds.12 mph89%29.62 "Hg1 mi
7:30 AM75 °FBroken clouds.8 mph94%29.59 "Hg1 mi
7:00 AM75 °FDrizzle. Mostly cloudy.9 mph94%29.59 "Hg1 mi
6:00 AM75 °FDrizzle. Mostly cloudy.9 mph94%29.59 "Hg1 mi
5:00 AM73 °FLight rain. Mostly cloudy.10 mph100%29.56 "Hg1 mi
4:00 AM73 °FRain. Mostly cloudy.13 mph100%29.56 "Hg1 mi
2:30 AM75 °FDrizzle. Mostly cloudy.12 mph94%29.56 "Hg1 mi
10:00 PM
Mon, Jul 27
77 °FDrizzle. Mostly cloudy.10 mph94%29.62 "Hg1 mi
9:00 PM79 °FDrizzle. Mostly cloudy.9 mph89%29.59 "Hg2 mi
7:00 PM79 °FMostly cloudy.9 mph89%29.56 "Hg2 mi
Weather by CustomWeather, © 2015

See weather overviewHow to use our weather pages